Regional Weather Roundup
Issued by NWS Burlington, VT

Home | Current Version | Previous Version | Text Only | Print | Product List | Glossary On
Versions: 1 2 3 4 5 6 7 8 9 10 11 12 13 14 15 16 17 18 19 20 21 22 23 24 25 26 27
000
ASUS41 KBTV 251510
RWRBTV
VERMONT REGIONAL WEATHER ROUNDUP
NATIONAL WEATHER SERVICE BURLINGTON VT
1100 AM EDT SAT OCT 25 2014

NOTE: "FAIR" INDICATES FEW OR NO CLOUDS BELOW 12,000 FEET WITH NO
SIGNIFICANT WEATHER AND/OR OBSTRUCTIONS TO VISIBILITY.

* THESE REPORTS ARE NOT UNDER NWS QUALITY CONTROL AND/OR DO NOT
  REPORT WEATHER SUCH AS PRECIPITATION AND FOG.

VTZ001>019-251600-
_____VERMONT_____


CITY           SKY/WX    TMP DP  RH WIND       PRES   REMARKS
BURLINGTON     MOSUNNY   51  42  71 S10       29.74F
MONTPELIER     SUNNY     50  38  63 VRB3      29.75F
MORRISVILLE    SUNNY     51  41  68 N5        29.72F
ST. JOHNSBURY*   N/A     38  37  97 MISG      29.70F
LYNDONVILLE*   FAIR      46  37  72 S3        29.71F
MIDDLEBURY*    FAIR      53  43  70 S9        29.75F
RUTLAND*       SUNNY     48  43  81 W3        29.76F
SPRINGFIELD    SUNNY     52  43  71 CALM      29.73F
HIGHGATE*      PTSUNNY   51  42  72 S6        29.71F
NEWPORT*       FAIR      52  40  64 S6        29.69F
BENNINGTON     CLOUDY    50  44  80 S6        29.78F
SUTTON*          N/A     50 N/A N/A MISG        N/A

_____LAKE CHAMPLAIN_____


CITY           SKY/WX    TMP DP  RH WIND       PRES   REMARKS
COLCHESTER RF*   N/A     46  45  93 S21         N/A
DIAMOND ISL*     N/A     45  43  93 SW9         N/A

$$

NYZ007-026>031-035-052-083-251600-
_____NORTHERN NEW YORK_____


CITY           SKY/WX    TMP DP  RH WIND       PRES   REMARKS
PLATTSBURGH    SUNNY     50  44  80 SE12      29.72F
SARANAC LAKE   CLOUDY    43  40  89 SW8       29.71F
MASSENA        CLOUDY    49  43  80 SW9       29.71F
OGDENSBURG*    PTSUNNY   50  48  93 S7        29.68F
POTSDAM*       CLOUDY    52  46  82 SW12G17   29.70F
WATERTOWN      CLOUDY    56  46  69 S13G18    29.72F
FT DRUM        PTSUNNY   54  46  72 SW15      29.72F
ALBANY         MOSUNNY   55  43  63 VRB3      29.80F
GLENS FALLS    CLOUDY    46  43  89 VRB3      29.77F FOG

$$
NHZ002-005-011-251600-
_____NEW HAMPSHIRE_____


CITY           SKY/WX    TMP DP  RH WIND       PRES   REMARKS
LEBANON        MOSUNNY   43  40  89 NE3       29.72F
KEENE          SUNNY     48  37  66 S5        29.75F
PLYMOUTH       FAIR      55  41  58 W8G21     29.69F
WHITEFIELD     SUNNY     52  42  69 SW5       29.70F

$$

_____REGIONAL QUEBEC LOCATIONS_____


CITY           SKY/WX    TMP DP  RH WIND       PRES   REMARKS
MONTREAL       PTSUNNY   52  41  66 SW10      29.68F
QUEBEC CITY    MOSUNNY   45  39  81 SW12      29.65F
SHERBROOKE     SUNNY     48  41  76 W5        29.67F

_____REGIONAL ONTARIO LOCATIONS_____


CITY           SKY/WX    TMP DP  RH WIND       PRES   REMARKS
OTTAWA         CLOUDY    48  43  81 S9        29.65F

______KEY______
VSB  - VISIBILITY IN MILES
WCI  - WIND CHILL INDEX
HX   - HEAT INDEX
$$
NNNN



USA.gov is the U.S. government's official web portal to all federal, state and local government web resources and services.